Location: ?
(35.4064°N, 139.3593°E)
Time: 13:32:50
(UTC+00:00)

ARIANE 6 FM1 Upper Stage - Pass Details

Date: 10 December 2025
Orbit: 522 x 610 km, 62.0° (Epoch: 13 January)

Event Time Altitude Azimuth Distance (km) Brightness Sun altitude
Rises 20:52:31 0° 180° (S) 2,712 6.5 -9.9°
Reaches altitude 10° 20:55:09 10° 164° (SSE) 1,806 5.8 -9.4°
Maximum altitude 20:58:11 20° 115° (ESE) 1,259 5.7 -8.8°
Drops below altitude 10° 21:01:11 10° 66° (ENE) 1,782 5.9 -8.2°
Sets 21:03:45 0° 50° (NE) 2,666 6.5 -7.7°
